Location: Peebles
(55.6412°N, 3.1714°W)
Time: 09:30:22
(UTC+00:00)

COSMOS 2251 DEB - Pass Details

Date: 07 December 2022
Orbit: 738 x 761 km, 74.0° (Epoch: 29 January)

Event Time Altitude Azimuth Distance (km) Brightness Sun altitude
Exits shadow 05:40:23 11° 350° (N) 2,204 ? -21.8°
Drops below altitude 10° 05:41:21 10° 1° (N) 2,263 ? -21.6°
Sets 05:45:52 0° 38° (NE) 3,192 ? -21.0°
